Stations météo

réclame
Mon MeteoGroup
Berus, Allemagne (10704): Température de l'air & dewpoint: 13.06.2019 11:00:00 - 19.06.2019 11:00:00 (CEST)Berus, Allemagne (10704): Température de l'air 5cm & Température de l'air -5cm: 13.06.2019 11:00:00 - 19.06.2019 11:00:00 (CEST)Berus, Allemagne (10704): Température de l'air -20cm & Température de l'air -100cm: 13.06.2019 11:00:00 - 19.06.2019 11:00:00 (CEST)Berus, Allemagne (10704): Vitesse du vent & gusts: 13.06.2019 11:00:00 - 19.06.2019 11:00:00 (CEST)Berus, Allemagne (10704): Direction du vent: 13.06.2019 11:00:00 - 19.06.2019 11:00:00 (CEST)Berus, Allemagne (10704): reduced air pressure: 13.06.2019 11:00:00 - 19.06.2019 11:00:00 (CEST)Berus, Allemagne (10704): visibility: 13.06.2019 11:00:00 - 19.06.2019 11:00:00 (CEST)Berus, Allemagne (10704): Ensoleillement: 13.06.2019 11:00:00 - 19.06.2019 11:00:00 (CEST)Berus, Allemagne (10704): Quantités de précipitations: 13.06.2019 11:00:00 - 19.06.2019 11:00:00 (CEST)
Date & Time tt [°C] td [°C] tt 5cm [°C] tt -5cm [°C] tt -20cm [°C] tt -100cm [°C] ff [km/h] ff [knt] fx [km/h] fx [knt] dd ppp [hPa] vv [km] sd [min] rr [mm]
19.06.2019 11:00:00 22,3 13,9 27,6 23,3 21,4 16,5 11 6 17 9 S 1009,2 75 11 0,0
19.06.2019 10:00:00 20,2 13,3 22,3 22,4 21,3 16,5 14 7 39 21 WSW 1009,7 59 7 0,0
19.06.2019 09:00:00 19,5 12,7 20,7 21,6 21,4 16,5 23 13 31 17 SW 1010,2 56 42 0,0
19.06.2019 08:00:00 19,5 12,5 23,5 20,0 21,6 16,5 13 7 19 10 S 1009,5 65 60 0,0
19.06.2019 07:00:00 18,8 12,7 19,7 19,5 21,9 16,5 9 5 16 8 SE 1009,9 54 52 0,0
19.06.2019 06:00:00 18,2 12,7 16,0 19,8 22,2 16,5 10 5 15 8 SE 1010,3 60 0 0,0
19.06.2019 05:00:00 19,1 12,7 16,0 20,3 22,5 16,4 6 4 10 6 ESE 1010,0 67 0 0,0
19.06.2019 04:00:00 18,9 13,6 15,2 20,9 22,8 16,4 5 3 9 5 ENE 1010,4 44 0 0,0
19.06.2019 03:00:00 19,7 12,4 16,1 21,5 23,1 16,4 6 4 11 6 SE 1010,7 67 0 0,0
19.06.2019 02:00:00 20,6 12,4 17,2 22,1 23,5 16,4 6 4 9 5 SE 1010,9 73 0 0,0
19.06.2019 01:00:00 21,0 13,0 17,6 22,9 23,8 16,4 9 5 11 6 SSE 1011,2 71 0 0,0
19.06.2019 00:00:00 21,3 13,5 17,4 23,7 24,1 16,4 7 4 11 6 S 1011,6 65 0 0,0
18.06.2019 23:00:00 20,6 13,5 17,4 24,6 24,4 16,4 10 5 14 8 SSW 1011,9 75 0 0,0
18.06.2019 22:00:00 22,2 13,7 19,6 25,9 24,5 16,4 10 5 14 7 S 1011,9 75 8 0,0
18.06.2019 21:00:00 24,2 13,3 22,4 27,5 24,6 16,3 8 4 10 6 S 1011,4 59 49 0,0
18.06.2019 20:00:00 25,2 15,1 26,8 28,6 24,5 16,3 4 2 16 9 SW 1011,3 75 1 0,0
18.06.2019 19:00:00 25,2 12,3 26,9 29,8 24,3 16,3 14 7 23 12 SW 1011,6 69 40 0,0
18.06.2019 18:00:00 26,8 12,8 32,1 30,5 24,0 16,3 15 8 22 12 SSW 1011,6 75 60 0,0
18.06.2019 17:00:00 26,7 14,2 32,9 29,9 23,7 16,3 11 6 24 13 SW 1012,2 68 22 0,0
18.06.2019 16:00:00 25,6 14,1 28,9 30,3 23,2 16,3 13 7 23 12 SSW 1012,6 69 15 0,0
18.06.2019 15:00:00 27,1 14,4 34,1 30,3 22,7 16,3 11 6 25 13 SSW 1012,6 70 33 0,0
18.06.2019 14:00:00 25,6 13,7 33,7 30,1 22,1 16,3 5 3 20 11 SSW 1013,1 69 39 0,0
18.06.2019 13:00:00 25,5 12,6 34,0 29,0 21,5 16,3 9 5 16 9 SW 1013,5 67 55 0,0
18.06.2019 12:00:00 24,3 15,3 30,7 28,0 20,9 16,2 8 5 16 9 SSW 1013,8 60 51 0,0
18.06.2019 11:00:00 23,0 14,9 28,6 25,6 20,5 16,2 6 4 14 8 SSE 1014,2 60 60 0,0
18.06.2019 10:00:00 21,6 14,4 28,2 22,9 20,3 16,2 5 3 10 5 ESE 1014,7 59 60 0,0
18.06.2019 09:00:00 19,3 12,7 26,5 20,6 20,3 16,2 5 3 10 6 ENE 1015,3 40 60 0,0
18.06.2019 08:00:00 18,0 12,4 23,5 18,7 20,5 16,2 8 4 11 6 NE 1015,3 56 60 0,0
18.06.2019 07:00:00 16,4 12,0 18,0 18,2 20,8 16,2 7 4 10 5 NE 1015,3 47 51 0,0
18.06.2019 06:00:00 15,6 11,6 13,2 18,5 21,1 16,2 10 5 13 7 NE 1015,5 47 0 0,0
18.06.2019 05:00:00 16,3 11,6 13,8 19,0 21,4 16,2 11 6 16 9 NNE 1015,6 46 0 0,0
18.06.2019 04:00:00 17,0 11,8 15,0 19,5 21,7 16,2 13 7 17 9 NE 1015,7 45 0 0,0
18.06.2019 03:00:00 17,2 11,7 15,1 20,1 22,1 16,2 14 8 16 9 NNE 1015,9 51 0 0,0
18.06.2019 02:00:00 17,7 11,8 15,3 20,7 22,5 16,2 13 7 15 8 NNE 1016,3 54 0 0,0
18.06.2019 01:00:00 18,4 11,8 15,9 21,5 22,8 16,2 12 6 14 8 NNE 1016,5 61 0 0,0
18.06.2019 00:00:00 19,2 11,9 16,3 22,4 23,2 16,2 11 6 16 9 NNE 1016,6 48 0 0,0
17.06.2019 23:00:00 19,9 11,9 17,4 23,5 23,5 16,2 13 7 18 10 NE 1016,5 62 0 0,0
17.06.2019 22:00:00 20,4 11,8 18,4 24,9 23,7 16,2 13 7 19 10 NNE 1016,3 75 15 0,0
17.06.2019 21:00:00 21,9 11,4 20,5 26,7 23,7 16,2 10 6 19 10 NNE 1016,0 70 60 0,0
17.06.2019 20:00:00 23,8 9,4 25,6 28,5 23,6 16,1 11 6 22 12 ENE 1015,9 75 60 0,0
17.06.2019 19:00:00 24,5 8,7 29,9 29,9 23,2 16,1 13 7 23 13 NE 1016,1 44 60 0,0
17.06.2019 18:00:00 25,1 10,1 31,9 30,5 22,8 16,1 9 5 23 12 ENE 1016,3 73 59 0,0
17.06.2019 17:00:00 24,2 9,1 32,5 30,5 22,3 16,1 13 7 27 15 ENE 1017,0 64 50 0,0
17.06.2019 16:00:00 24,4 9,8 33,5 29,9 21,7 16,1 9 5 20 11 E 1017,4 51 44 0,0
17.06.2019 15:00:00 24,2 10,8 34,3 29,0 21,0 16,1 6 3 20 11 ENE 1017,8 64 27 0,0
17.06.2019 14:00:00 22,3 9,8 26,7 29,5 20,3 16,1 11 6 26 14 ENE 1018,5 64 43 0,0
17.06.2019 13:00:00 23,2 10,3 30,9 27,7 19,6 16,1 10 5 27 15 NE 1018,8 63 54 0,0
17.06.2019 12:00:00 22,7 11,0 30,8 25,4 19,0 16,1 10 5 25 13 ENE 1019,2 55 54 0,0
17.06.2019 11:00:00 21,1 10,9 28,1 23,2 18,5 16,1 13 7 22 12 E 1019,8 75 60 0,0
17.06.2019 10:00:00 19,2 11,8 27,0 20,4 18,3 16,1 13 7 21 11 NE 1020,2 54 60 0,0
17.06.2019 09:00:00 16,8 11,3 23,5 17,9 18,4 16,1 11 6 16 9 NE 1020,6 61 60 0,0
17.06.2019 08:00:00 14,9 10,6 19,9 16,0 18,6 16,1 13 7 19 10 NNE 1021,1 57 60 0,0
17.06.2019 07:00:00 13,4 10,7 14,7 15,5 18,8 16,1 12 7 16 9 NNE 1021,3 20 57 0,0
17.06.2019 06:00:00 12,8 10,6 10,9 15,6 19,1 16,1 10 5 13 7 NNE 1021,6 23 0 0,0
17.06.2019 05:00:00 12,5 10,6 10,7 16,0 19,5 16,1 9 5 12 6 N 1021,9 40 0 0,0
17.06.2019 04:00:00 13,4 10,9 10,5 16,5 19,8 16,1 9 5 12 7 NNE 1022,0 35 0 0,0
17.06.2019 03:00:00 14,0 11,1 11,0 17,0 20,2 16,1 7 4 10 5 NNE 1021,9 32 0 0,0
17.06.2019 02:00:00 14,4 10,9 10,3 17,7 20,5 16,1 8 4 9 5 NNE 1021,8 65 0 0,0
17.06.2019 01:00:00 15,0 10,8 10,0 18,4 20,9 16,1 6 4 8 4 NNE 1021,8 75 0 0,0
17.06.2019 00:00:00 15,6 11,1 10,7 19,3 21,3 16,1 5 3 7 4 NE 1021,8 62 0 0,0
16.06.2019 23:00:00 15,8 10,6 10,9 20,3 21,6 16,1 5 3 6 4 NNE 1021,9 75 0 0,0
16.06.2019 22:00:00 16,9 10,5 12,5 21,6 21,8 16,0 5 3 9 5 N 1021,6 60 15 0,0
16.06.2019 21:00:00 18,4 10,7 15,7 23,2 21,9 16,0 4 2 6 4 NNW 1021,2 64 55 0,0
16.06.2019 20:00:00 18,7 10,1 18,0 24,7 21,8 16,0 5 3 15 8 N 1021,1 65 40 0,0
16.06.2019 19:00:00 20,0 9,7 26,1 25,2 21,8 16,0 5 3 13 7 N 1021,0 69 18 0,0
16.06.2019 18:00:00 19,3 11,2 21,8 25,7 21,6 16,0 6 3 13 7 W 1021,1 63 11 0,0
16.06.2019 17:00:00 19,7 11,4 23,6 26,1 21,3 16,0 7 4 19 10 WNW 1021,3 72 0 0,0
16.06.2019 16:00:00 20,1 10,2 24,2 26,9 21,0 16,0 14 7 22 12 SW 1021,3 75 31 0,0
16.06.2019 15:00:00 18,1 10,6 20,9 26,4 20,7 16,0 15 8 24 13 W 1021,8 75 10 0,0
16.06.2019 14:00:00 18,7 10,9 23,9 26,3 20,1 16,0 14 7 24 13 SW 1021,8 56 0 0,0
16.06.2019 13:00:00 19,0 10,7 23,4 27,6 19,5 16,0 14 8 29 16 SW 1021,8 71 44 0,0
16.06.2019 12:00:00 19,4 10,5 27,3 25,3 18,9 16,0 16 8 27 15 SW 1021,6 44 54 0,0
16.06.2019 11:00:00 18,2 10,6 24,2 22,8 18,6 16,0 15 8 26 14 WSW 1021,6 75 56 0,0
16.06.2019 10:00:00 17,0 10,9 23,1 20,3 18,4 16,0 13 7 24 13 WSW 1021,5 63 60 0,0
16.06.2019 09:00:00 16,7 12,4 21,4 17,9 18,5 16,0 9 5 21 12 W 1021,2 48 60 0,0
16.06.2019 08:00:00 14,2 11,9 17,0 16,2 18,7 16,0 12 6 20 11 SW 1021,2 54 43 0,0
16.06.2019 07:00:00 12,2 10,7 11,1 16,2 19,0 16,0 12 6 16 8 W 1021,2 43 0 0,0
16.06.2019 06:00:00 12,6 11,5 11,7 16,7 19,2 16,0 10 5 12 7 WSW 1020,7 39 0 0,0
16.06.2019 05:00:00 13,2 11,9 12,4 17,2 19,5 16,0 10 5 12 6 WSW 1020,5 43 0 0,0
16.06.2019 04:00:00 13,5 12,1 12,8 17,7 19,8 16,0 10 5 16 8 SW 1020,3 40 0 0,2
16.06.2019 03:00:00 13,7 12,2 13,0 18,2 20,0 16,0 11 6 16 8 WSW 1020,2 37 0 0,0
16.06.2019 02:00:00 14,0 12,9 13,6 18,8 20,3 16,0 9 5 18 10 SW 1020,2 27 0 0,5
16.06.2019 01:00:00 15,4 11,9 14,6 19,4 20,6 16,0 11 6 24 13 WSW 1019,5 42 0 0,0
16.06.2019 00:00:00 16,1 11,6 15,7 20,0 20,8 16,0 17 9 33 18 W 1018,5 64 0 0,0
15.06.2019 23:00:00 16,7 11,7 16,3 20,8 21,0 16,0 18 10 35 19 W 1017,7 71 0 0,0
15.06.2019 22:00:00 17,4 12,4 16,7 21,9 21,2 16,0 16 8 25 13 W 1017,0 71 0 0,0
15.06.2019 21:00:00 18,7 12,7 18,2 23,3 21,2 15,9 10 6 19 11 WNW 1016,4 73 32 0,0
15.06.2019 20:00:00 20,4 11,7 20,9 24,7 21,0 15,9 10 5 23 13 WNW 1015,9 61 57 0,0
15.06.2019 19:00:00 21,2 11,6 24,2 25,8 20,7 15,9 11 6 25 14 W 1015,4 59 54 0,0
15.06.2019 18:00:00 21,8 10,7 26,7 26,3 20,3 15,9 13 7 27 15 WSW 1015,4 75 55 0,0
15.06.2019 17:00:00 21,8 11,7 27,3 26,0 19,8 15,9 14 7 28 15 WSW 1015,8 73 37 0,0
15.06.2019 16:00:00 21,1 12,0 27,0 25,8 19,3 15,9 16 9 29 15 WSW 1015,9 75 43 0,0
15.06.2019 15:00:00 21,0 14,1 28,4 24,7 18,7 15,9 14 7 29 15 WSW 1015,9 66 31 0,0
15.06.2019 14:00:00 20,4 14,2 28,5 23,5 18,2 15,9 17 9 32 17 SW 1016,3 54 40 0,0
15.06.2019 13:00:00 19,2 14,4 26,8 21,0 18,0 15,9 16 9 36 19 SW 1016,0 75 19 0,0
15.06.2019 12:00:00 16,9 14,2 19,3 19,6 17,8 15,9 24 13 39 21 WSW 1016,0 73 21 0,0
15.06.2019 11:00:00 14,7 14,3 14,9 17,4 17,8 15,9 20 11 37 20 SW 1015,8 10 0 0,0
15.06.2019 10:00:00 14,8 14,3 15,2 16,9 17,9 15,9 18 10 29 16 SW 1015,1 48 0 0,1
15.06.2019 09:00:00 14,9 14,4 15,0 17,2 17,9 15,9 20 11 32 17 SW 1014,2 46 0 0,0
15.06.2019 08:00:00 14,8 14,2 15,0 16,6 18,0 15,9 23 12 39 21 WSW 1013,3 28 0 0,0
15.06.2019 07:00:00 14,9 14,5 15,0 16,5 18,1 15,9 24 13 35 19 SW 1012,8 9 3 0,0
15.06.2019 06:00:00 14,8 14,3 14,7 16,2 18,2 15,9 12 7 32 18 WNW 1011,7 18 0 0,1
15.06.2019 05:00:00 15,0 14,7 14,9 16,1 18,4 15,9 21 11 42 23 W 1011,3 4,7 0 0,0
15.06.2019 04:00:00 14,4 14,0 14,0 15,9 18,7 15,9 21 11 29 16 W 1011,0 5 0 0,1
15.06.2019 03:00:00 14,6 13,9 13,4 16,3 18,9 15,9 7 4 11 6 N 1010,0 22 0 0,0
15.06.2019 02:00:00 14,6 14,3 14,4 16,6 19,2 15,9 10 5 23 12 NE 1010,6 0,1 0 0,0
15.06.2019 01:00:00 15,2 14,7 14,4 16,8 19,5 15,9 14 8 20 11 NNE 1010,6 17 0 0,0
15.06.2019 00:00:00 15,2 14,7 14,4 17,5 19,8 15,9 9 5 15 8 NNE 1012,2 17 0 0,1
14.06.2019 23:00:00 15,7 14,5 15,0 18,3 20,1 15,9 8 4 24 13 W 1012,8 44 0 1,3
14.06.2019 22:00:00 15,9 14,9 15,5 19,0 20,4 15,9 5 3 9 5 SSW 1012,7 40 0 0,0
14.06.2019 21:00:00 16,5 15,0 16,2 19,8 20,6 15,9 7 4 17 9 SE 1012,5 46 0 0,0
14.06.2019 20:00:00 17,1 14,1 16,2 20,8 20,8 15,9 8 5 14 7 E 1012,7 63 0 0,0
14.06.2019 19:00:00 17,4 14,2 16,7 22,0 20,9 15,9 8 4 11 6 E 1012,9 53 0 0,6
14.06.2019 18:00:00 19,4 12,6 19,8 23,9 20,8 15,9 6 3 16 9 SSE 1013,1 59 0 0,0
14.06.2019 17:00:00 20,0 11,4 21,5 25,0 20,6 15,9 8 4 22 12 SE 1013,6 73 0 0,0
14.06.2019 16:00:00 20,3 11,4 22,0 26,3 20,2 15,9 14 8 24 13 S 1014,4 66 0 0,0
14.06.2019 15:00:00 21,1 11,3 24,4 27,5 19,6 15,9 10 5 28 15 SSW 1014,5 67 11 0,0
14.06.2019 14:00:00 21,3 12,1 25,2 27,8 18,9 15,9 14 7 21 11 S 1015,4 70 51 0,0
14.06.2019 13:00:00 20,8 11,1 25,5 26,3 18,2 15,9 9 5 19 10 SSE 1015,6 71 50 0,0
14.06.2019 12:00:00 20,0 10,6 23,7 24,5 17,7 15,9 8 4 11 6 E 1015,6 75 58 0,0
14.06.2019 11:00:00 19,0 11,4 23,3 19,9 17,4 15,9 6 4 11 6 SW 1015,6 70 10 0,0
14.06.2019 10:00:00 16,1 10,5 15,9 17,5 17,3 15,9 3 2 13 7 N 1015,9 43 0 0,0
14.06.2019 09:00:00 17,6 8,8 19,5 17,2 17,3 15,9 4 2 9 5 S 1015,0 75 25 0,0
14.06.2019 08:00:00 15,4 7,8 16,5 15,1 17,4 15,9 5 3 9 5 N 1014,4 75 32 0,0
14.06.2019 07:00:00 14,3 7,9 13,9 13,8 17,7 15,9 6 4 14 7 ENE 1013,9 70 57 0,0
14.06.2019 06:00:00 13,9 7,3 10,1 13,9 18,0 15,9 9 5 13 7 ENE 1013,8 68 0 0,0
14.06.2019 05:00:00 13,8 7,3 10,7 14,6 18,4 15,9 8 4 12 7 NE 1013,7 67 0 0,0
14.06.2019 04:00:00 14,5 7,5 11,8 15,0 18,7 15,9 10 6 14 8 NE 1013,5 75 0 0,0
14.06.2019 03:00:00 14,5 8,4 12,7 15,6 19,1 15,9 8 4 10 5 NE 1013,9 75 0 0,0
14.06.2019 02:00:00 14,7 8,7 11,5 15,9 19,5 15,9 8 5 16 9 NE 1014,1 59 0 0,0
14.06.2019 01:00:00 15,3 9,0 11,6 16,8 19,9 15,9 7 4 14 8 NE 1014,2 72 0 0,0
14.06.2019 00:00:00 17,1 7,4 14,0 17,9 20,2 15,9 5 3 14 8 ESE 1014,3 75 0 0,0
13.06.2019 23:00:00 15,8 10,0 12,7 18,8 20,6 15,9 7 4 13 7 ENE 1014,2 69 0 0,0
13.06.2019 22:00:00 16,5 10,0 14,3 20,4 20,8 15,9 8 4 10 6 NE 1013,8 60 4 0,0
13.06.2019 21:00:00 17,0 10,3 17,0 22,1 21,0 15,9 10 5 13 7 NNE 1013,7 75 46 0,0
13.06.2019 20:00:00 18,9 9,4 21,3 24,5 20,9 15,9 3 2 32 17 NW 1013,5 75 60 0,0
13.06.2019 19:00:00 20,9 7,5 23,3 26,6 20,6 15,9 18 10 39 21 SW 1013,2 69 57 0,0
13.06.2019 18:00:00 20,9 8,5 24,2 27,6 20,2 15,9 22 12 37 20 SSW 1013,2 75 47 0,0
13.06.2019 17:00:00 19,6 7,9 21,2 28,4 19,6 15,9 18 10 38 20 S 1013,5 67 41 0,0
13.06.2019 16:00:00 20,2 8,5 24,3 28,5 18,9 15,9 22 12 38 21 SSW 1013,6 75 47 0,0
13.06.2019 15:00:00 18,8 8,1 21,8 27,9 18,1 15,9 22 12 50 27 SW 1013,8 65 52 0,0
13.06.2019 14:00:00 19,1 8,4 23,4 26,2 17,4 15,9 29 16 46 25 SW 1014,1 69 46 0,0
13.06.2019 13:00:00 18,1 8,7 22,4 23,5 16,8 15,9 25 13 44 24 SSW 1014,3 70 47 0,0
13.06.2019 12:00:00 15,5 7,8 16,8 20,9 16,2 15,9 24 13 39 21 SW 1014,9 67 41 0,0
13.06.2019 11:00:00 16,5 9,5 21,0 19,8 15,7 15,9 22 12 31 17 SW 1014,7 61 47 0,0

tt = Température de l'air
td = dewpoint
tt 5cm = Température de l'air 5cm
tt -5cm = Température de l'air -5cm
tt -20cm = Température de l'air -20cm
tt -100cm = Température de l'air -100cm
ff = Vitesse du vent
fx = gusts
dd = Direction du vent
ppp = reduced air pressure
vv = visibility
sd = Ensoleillement
rr = Quantités de précipitations

stations d'obs. à proximité